Tracking 27107 objects as of 22-Mar-2023
HD Live streaming from Space Station
objects crossing your sky now

DMSP 5D-2 F11 DEB

Track DMSP 5D-2 F11 DEB now!
10-day predictions


NORAD ID: 28318
Int'l Code: 1991-082AF
Perigee: 708.2 km
Apogee: 781.5 km
Inclination: 98.7 °
Period: 99.6 minutes
Semi major axis: 7115 km
RCS: 0.0172 m2 (small)
Launch date: November 28, 1991
Source: United States (US)
Launch site: AIR FORCE WESTERN TEST RANGE (AFWTR)

Note: This is SATELLITE DEBRIS
Your satellite tracking list
Your tracking list is empty




NASA's NSSDC Master Catalog

Two Line Element Set (TLE):
1 28318U 91082AF  23079.51367080  .00020775  00000-0  56971-2 0  9994
2 28318  98.7451 179.3836 0051494 198.8530 225.9249 14.46306519981372
Source of the keplerian elements: AFSPC